Probability
0 0 0 0 0 0 0 0 0 0 0 0 0 0 0 0 0 0 0 0 0 0 0 0 0 0 0 0 0 0 0 0 0 0 0 0 0 0 0 0 0 0 0 0
0 0 0 0 0 0 0 0 0 0 0 0 0 0 0 0 0 0 0 0 0 0 0 0 0 0 0 0 0 0 0 0 0 0 0 0 0 0 0 0 0 0 0 0
0 0 0 0 0 0 0 0 0 0 0 0 0 0 0 0 0 0 0 0 0 0 0 0 0 0 0 0 0 0 0 0 0 0 0 0 0 0 0 0 0 0 0 0
0 0 0 0 0 0 0 0 0 0 0 0 0 0 0 0 0 0 0 0 0 0 0 0 0 0 0 0 0 0 0 0 0 0 0 0 0 0 0 0 0 0 0 0
0 0 0 0 0 0 0 0 0 0 0 0 0 0 0 0 0 0 0 0 0 0 0 0 0 0 0 0 0 0 0 0 0 0 0 0 0 0 0 0 0 0 0 0
0 0 0 0 0 0 0 0 0 0 0 0 0 0 0 0 0 0 0 0 0 0 0 0 0 0 0 0 0 0 0 0 0 0 0 0 0 0 0 0 0 0 0 0
0 0 0 0 0 0 0 0 0 0 0 0 0 0 0 0 0 0 0 0 0 0 0 0 0 0 0 0 0 0 0 0 0 0 0 0 0 0 0 0 0 0 0 0
0 0 0 0 0 0 0 0 0 0 0 0 0 0 0 0 0 0 0 0 0 0 0 0 0 0 0 0 0 0 0 0 0 0 0 0 0 0 0 0 0 0 0 0
0 0 0 0 0 0 0 0 0 0 0 0 0 0 0 0 0 0 0 0 0 0 0 0 0 0 0 0 0 0 0 0 0 0 0 0 0 0 0 0 0 0 0 0
0 0 0 0 0 0 0 0 0 0 0 0 0 0 0 0 0 0 0 0 0 0 0 0 0 0 0 0 0 0 0 0 0 0 0 0 0 0 0 0 0 0 0 0
0 0 0 0 0 0 0 0 0 0 0 0 0 0 0 0 0 0 0 0 0 0 0 0 0 0 0 0 0 0 0 0 0 0 0 0 0 0 0 0 0 0 0 0
0 0 0 0 0 0 0 0 0 0 0 0 0 0 0 0 0 0 0 0 0 0 0 0 0 0 0 0 0 0 0 0 0 0 0 0 0 0 0 0 0 0 0 0
0 0 0 0 0 0 0 0 0 0 0 0 0 0 0 0 0 0 0 0 0 0 0 0 0 0 0 0 0 0 0 0 0 0 0 0 0 0 0 0 0 0 0 0
0 0 0 0 0 0 0 0 0 0 0 0 0 0 0 0 0 0 0 0 0 0 0 0 0 0 0 0 0 0 0 0 0 0 0 0 0 0 0 0 0 0 0 0
0 0 0 0 0 0 0 0 0 0 0 0 0 0 0 0 0 0 0 0 0 0 0 0 0 0 0 0 0 0 0 0 0 0 0 0 0 0 0 0 0 0 0 0
0 0 0 0 0 0 0 0 0 0 0 0 0 0 0 0 0 0 0 0 0 0 0 0 0 0 0 0 0 0 0 0 0 0 0 0 0 0 0 0 0 0 0 0
0 0 0 0 0 0 0 0 0 0 0 0 0 0 0 0 0 0 0 0 0 0 0 0 0 0 0 0 0 0 0 0 0 0 0 0 0 0 0 0 0 0 0 0
0 0 0 0 0 0 0 0 0 0 0 0 0 0 0 0 0 0 0 0 0 0 0 0 0 0 0 0 0 0 0 0 0 0 0 0 0 0 0 0 0 0 0 0
0 0 0 0 0 0 0 0 0 0 0 0 0 0 0 0 0 0 0 0 0 0 0 0 0 0 0 0 0 0 0 0 0 0 0 0 0 0 0 0 0 0 0 0
0 0 0 0 0 0 0 0 0 0 0 0 0 0 0 0 0 0 0 0 0 0 0 0 0 0 0 0 0 0 0 0 0 0 0 0 0 0 0 0 0 0 0 0
0 0 0 0 0 0 0 0 0 0 0 0 0 0 0 0 0 0 0 0 0 0 0 0 0 0 0 0 0 0 0 0 0 0 0 0 0 0 0 0 0 0 0 0
0 0 0 0 0 0 0 0 0 0 0 0 0 0 0 0 0 0 0 0 0 0 0 0 0 0 0 0 0 0 0 0 0 0 0 0 0 0 0 0 0 0 0 0
0 0 0 0 0 0 0 0 0 0 0 0 0 0 0 0 0 0 0 0 0 0 0 0 0 0 0 0 0 0 0 0 0 0 0 0 0 0 0 0 0 0 0 0
0 0 0 0 0 0 0 0 0 0 0 0 0 0 0 0 0 0 0 0 0 0 0 0 0 0 0 0 0 0 0 0 0 0 0 0 0 0 0 0 0 0 0 0
0 0 0 0 0 0 0 0 0 0 0 0 0 0 0 0 0 0 0 0 0 0 0 0 0 0 0 0 0 0 0 0 0 0 0 0 0 0 0 0 0 0 0 0
0 0 0 0 0 0 0 0 0 0 0 0 0 0 0 0 0 0 0 0 0 0 0 0 0 0 0 0 0 0 0 0 0 0 0 0 0 0 0 0 0 0 0 0
0 0 0 0 0 0 0 0 0 0 0 0 0 0 0 0 0 0 0 0 0 0 0 0 0 0 0 0 0 0 0 0 0 0 0 0 0 0 0 0 0 0 0 0
Wind_Speed
2 3 4 2 1 5 5 4 5 5 5 4 3 2 2 2 2 4 5 7 8 7 7 6 5 4 4 4 4 4 5 6 5 4 4 4 3 2 2 3 4 4 5 5
1 2 4 4 4 3 2 1 1 3 3 3 3 1 1 3 4 4 4 5 6 7 8 8 6 4 3 3 3 5 7 7 5 6 6 6 5 3 4 4 4 4 6 6
3 2 1 1 2 1 1 1 1 2 2 3 1 0 1 2 3 3 3 2 4 6 7 7 6 3 1 1 2 5 7 7 6 6 6 7 7 6 6 6 5 5 5 5
1 2 2 3 2 2 2 1 3 4 5 5 3 1 0 1 1 4 4 3 4 5 7 6 5 2 1 2 2 4 6 6 5 5 5 6 6 5 5 4 5 5 5 5
3 1 4 3 2 4 3 2 3 4 5 3 3 3 3 3 4 4 3 4 4 5 6 6 4 2 3 3 3 4 4 4 3 2 1 2 3 2 3 4 6 5 4 5
3 2 4 3 2 4 3 4 3 5 5 5 5 1 3 3 2 3 3 3 3 5 5 4 0 2 4 3 3 3 2 2 1 1 0 0 2 2 1 3 4 5 4 3
2 2 5 5 1 6 3 7 4 7 6 6 6 5 4 3 2 3 3 3 3 3 4 4 1 3 4 4 3 2 2 3 3 4 3 2 1 3 3 3 1 1 1 2
3 1 6 3 4 6 8 3 5 6 5 6 5 3 3 3 3 4 4 3 2 2 3 3 2 3 5 4 2 2 3 4 5 5 6 5 3 1 2 2 3 2 1 1
7 7 7 4 5 4 6 5 5 6 6 6 5 3 2 2 2 2 1 2 1 1 2 2 2 2 4 3 2 3 3 2 3 4 5 6 5 3 3 2 1 1 1 1
3 6 5 5 4 4 6 6 7 7 7 8 6 4 3 2 1 1 1 2 2 2 2 2 2 2 2 2 2 2 1 1 2 2 3 4 3 3 2 2 2 2 2 3
5 5 3 5 6 7 5 5 5 6 7 9 8 6 5 4 3 2 0 1 2 2 1 1 1 2 2 2 3 2 1 2 2 2 1 2 1 1 2 1 1 1 1 1
9 9 8 9 9 8 8 7 7 7 6 6 8 8 7 6 4 3 2 1 1 1 1 2 2 1 0 1 1 0 2 1 0 0 0 0 0 2 4 4 5 4 3 2
10 7 8 5 7 9 9 9 8 9 9 8 7 7 7 6 5 4 4 4 4 3 3 2 2 3 3 2 1 1 2 1 1 1 1 1 1 1 2 4 7 10 10 8
6 5 5 6 7 10 9 10 9 8 8 8 8 7 6 6 5 6 7 7 5 4 4 4 3 4 4 2 2 2 1 2 3 2 2 2 2 2 2 1 2 3 5 6
10 10 9 8 8 9 8 7 7 7 7 7 6 7 8 9 9 9 8 5 4 5 5 5 6 6 4 2 2 3 3 3 3 3 3 3 3 3 2 2 1 2 3 4
10 8 5 6 10 11 9 9 10 11 10 9 8 10 11 11 10 8 6 6 6 7 7 7 8 6 5 4 4 3 3 7 7 4 4 3 3 2 1 1 1 2 3 4
10 11 10 9 10 11 13 12 14 14 12 11 13 12 9 8 7 7 7 7 7 7 6 7 7 6 6 6 5 4 4 6 8 5 3 3 2 1 1 1 2 3 4 5
17 20 15 14 12 12 14 13 12 12 12 14 11 8 8 10 11 11 9 6 5 4 6 7 6 5 7 7 6 5 5 5 4 4 3 2 2 2 2 3 4 4 3 2
14 14 14 14 13 12 13 12 11 12 11 9 10 11 11 12 11 9 7 7 7 8 8 8 9 7 7 9 10 6 6 6 5 4 4 4 4 3 3 3 4 4 3 2
14 12 13 13 11 10 11 10 10 10 9 9 10 9 9 10 9 8 8 9 10 9 8 7 7 7 8 10 13 7 8 8 7 5 5 4 4 3 3 4 4 4 3 3
13 12 12 12 11 10 10 11 11 11 11 11 12 13 13 11 9 8 8 8 9 9 7 8 7 7 8 9 13 8 8 8 7 6 5 5 4 4 4 5 5 4 4 4
8 10 12 11 10 9 9 10 11 12 11 11 12 12 10 9 9 8 9 9 9 9 8 7 7 10 10 11 8 8 8 8 7 6 5 5 5 5 5 6 5 5 5 5
4 7 9 10 11 12 10 10 12 12 12 13 14 13 12 11 9 9 8 9 8 9 8 8 11 13 14 9 7 8 8 8 8 7 7 6 6 6 6 6 6 5 5 5
4 5 7 7 6 6 8 10 12 12 12 13 13 13 11 8 6 8 8 9 13 13 9 10 13 13 12 7 7 7 8 8 7 7 6 5 5 5 5 5 4 4 5 6
4 4 4 4 6 8 11 11 10 10 10 9 10 10 10 9 9 9 9 9 10 11 8 10 13 14 11 8 8 8 8 7 7 6 6 5 5 5 4 4 4 4 5 5
2 3 3 4 5 6 6 6 7 9 9 9 8 8 8 7 8 6 6 8 10 10 8 5 7 10 8 8 8 7 6 5 6 6 6 5 6 5 5 4 5 4 4 4
3 2 2 3 3 4 4 5 6 7 8 10 10 9 9 8 8 7 8 6 6 7 7 6 7 8 7 6 5 4 4 4 5 5 5 5 5 5 5 6 4 3 3 4
Wind_Direction
256 242 151 97 111 176 181 193 204 229 197 157 119 124 148 131 85 58 23 2 353 346 340 340 344 348 359 7 24 57 75 76 70 63 68 72 77 71 58 55 53 50 41 25
353 81 95 87 39 64 83 62 252 139 115 103 128 140 70 52 55 51 25 1 353 347 339 332 326 326 353 20 42 73 80 77 70 64 61 55 53 52 45 38 30 35 34 25
243 209 11 327 292 19 88 54 354 191 156 137 182 127 48 29 13 340 312 314 328 326 320 317 313 306 320 52 77 86 82 73 63 57 58 53 42 35 33 25 11 12 21 20
122 65 255 252 229 224 159 205 195 178 168 176 198 150 46 170 248 276 278 288 298 301 303 305 303 283 185 128 105 95 87 75 59 48 47 49 41 24 25 29 13 358 360 2
114 151 269 275 198 168 161 252 205 168 152 137 103 40 330 230 211 235 254 258 268 287 294 297 286 215 153 121 103 101 99 91 74 60 72 78 69 35 22 26 14 0 1 358
122 175 243 260 228 162 109 278 205 164 158 142 124 103 273 263 238 271 284 268 281 308 316 322 334 140 137 127 122 118 107 89 76 61 314 172 152 139 93 56 22 1 16 17
138 219 266 256 181 121 158 245 194 170 166 157 175 202 238 282 282 292 288 282 295 330 343 351 51 128 129 126 130 123 77 44 41 31 13 11 168 177 172 147 118 360 15 26
145 221 267 244 162 180 211 197 159 161 166 173 197 227 245 250 267 287 290 309 337 11 3 5 24 113 121 122 127 95 64 44 34 24 18 21 38 98 161 167 172 203 188 87
187 213 233 235 210 198 158 157 173 171 177 173 180 203 185 193 257 299 326 357 37 100 72 35 24 90 121 117 99 85 67 41 21 21 27 22 19 24 42 29 348 319 348 68
239 262 250 236 199 169 179 175 181 180 171 167 176 181 165 170 218 288 37 75 93 91 81 63 45 72 99 106 87 75 47 358 1 10 22 24 16 4 34 35 357 340 349 0
240 261 254 247 208 191 189 172 153 160 169 171 170 176 178 191 207 212 157 100 102 90 47 358 30 56 58 61 66 55 15 345 353 4 12 30 31 30 51 44 301 278 314 350
216 213 188 218 209 183 177 187 178 167 171 176 178 182 182 195 200 197 203 181 155 192 265 293 313 312 297 124 123 350 310 309 308 43 41 58 358 8 24 34 36 56 77 102
208 201 192 215 192 177 183 194 187 180 180 185 192 185 182 193 198 198 210 215 213 212 218 235 270 277 266 241 221 237 262 257 202 177 167 161 106 61 22 12 35 43 41 50
198 148 185 202 193 188 186 192 189 190 195 192 188 183 182 191 193 201 216 220 214 209 216 217 229 257 267 271 259 240 217 176 144 135 125 108 95 93 101 86 23 352 0 13
199 191 197 192 186 185 186 173 176 198 209 212 197 189 188 194 204 213 217 212 206 216 222 217 226 242 243 234 207 186 159 129 115 112 110 109 107 99 90 79 50 337 324 327
198 196 193 172 181 186 182 179 190 207 210 209 204 205 204 204 209 213 205 190 194 220 221 208 219 225 198 179 171 170 161 150 142 136 130 123 119 112 97 56 336 305 294 289
163 188 197 196 194 191 194 196 202 209 208 208 212 210 202 199 207 216 215 204 205 222 216 204 214 197 176 170 170 174 164 161 155 146 147 148 147 152 182 246 266 273 277 275
195 198 191 188 188 194 202 207 210 208 205 210 208 194 189 195 208 218 214 196 195 234 240 226 215 182 177 174 173 176 175 173 168 170 174 185 196 209 225 244 258 269 273 283
209 199 192 192 189 188 197 203 209 213 208 194 186 194 201 207 213 211 186 171 189 223 241 229 214 193 191 193 182 182 185 184 183 190 197 207 209 218 236 265 282 281 257 237
207 203 195 196 192 187 195 200 203 206 202 189 189 195 203 211 207 192 179 192 207 216 220 207 198 199 202 198 191 190 192 192 194 199 204 211 222 240 262 279 280 269 245 231
203 197 194 194 194 195 199 195 192 198 197 188 191 200 208 211 196 182 180 210 230 225 218 206 200 206 203 196 194 192 193 194 198 204 208 215 225 240 257 264 256 242 232 231
202 196 199 199 195 202 205 196 195 197 190 191 201 204 204 203 192 191 201 215 226 211 202 207 210 211 201 190 188 190 195 198 202 205 210 214 219 234 246 246 238 234 232 233
228 209 205 203 204 209 203 196 198 197 196 198 201 201 202 203 192 189 214 223 224 212 200 211 214 209 193 181 186 191 197 202 207 210 213 214 220 230 240 240 235 234 237 240
278 240 226 217 207 202 203 206 204 204 205 205 206 202 196 195 199 208 213 211 206 204 209 217 214 203 182 183 187 193 202 209 212 212 210 213 223 231 233 233 236 242 249 253
311 277 248 214 204 217 222 219 209 207 205 208 209 203 198 196 201 208 207 213 208 200 209 212 202 188 181 185 190 196 204 209 208 203 203 209 217 217 213 214 223 243 254 252
322 314 283 243 232 233 229 217 214 212 206 208 213 207 201 199 202 198 198 207 202 198 198 187 178 180 186 190 194 195 193 195 201 203 202 202 204 201 202 208 222 232 242 247
247 256 273 280 263 236 218 205 213 218 212 208 211 208 200 196 195 198 199 198 192 190 184 171 168 176 182 181 172 167 176 189 197 200 198 199 200 203 207 213 217 223 234 247